Time,TemperatureF,DewpointF,PressureIn,WindDirection,WindDirectionDegrees,WindSpeedMPH,WindSpeedGustMPH,Humidity,HourlyPrecipIn,Conditions,Clouds,dailyrainin,SoftwareType,DateUTC
2013-06-13 00:01:00,81.0,25.0,-100.00,South,172,10.0,15.0,13,0.00,,,-99.99,,2013-06-13 00:01:00,
2013-06-13 00:11:00,80.0,25.0,-100.00,South,172,9.0,12.0,14,0.00,,,-99.99,,2013-06-13 00:11:00,
2013-06-13 00:22:00,80.0,25.0,-100.00,South,172,6.0,17.0,13,0.00,,,-99.99,,2013-06-13 00:22:00,
2013-06-13 00:32:00,81.0,26.0,-100.00,South,172,4.0,16.0,13,0.00,,,-99.99,,2013-06-13 00:32:00,
2013-06-13 00:42:00,81.0,26.0,-100.00,South,172,7.0,16.0,13,0.00,,,-99.99,,2013-06-13 00:42:00,
2013-06-13 00:52:00,80.0,24.0,-100.00,South,172,10.0,17.0,13,0.00,,,-99.99,,2013-06-13 00:52:00,
2013-06-13 01:01:00,80.0,25.0,-100.00,South,172,6.0,9.0,13,0.00,,,-99.99,,2013-06-13 01:01:00,
2013-06-13 01:12:00,80.0,25.0,-100.00,South,172,9.0,15.0,13,0.00,,,-99.99,,2013-06-13 01:12:00,
2013-06-13 01:22:00,80.0,22.0,-100.00,South,172,12.0,20.0,11,0.00,,,-99.99,,2013-06-13 01:22:00,
2013-06-13 01:32:00,80.0,22.0,-100.00,South,172,14.0,20.0,12,0.00,,,-99.99,,2013-06-13 01:32:00,
2013-06-13 01:43:00,80.0,22.0,-100.00,South,172,14.0,19.0,12,0.00,,,-99.99,,2013-06-13 01:43:00,
2013-06-13 01:53:00,79.0,22.0,-100.00,South,172,12.0,17.0,12,0.00,,,-99.99,,2013-06-13 01:53:00,
2013-06-13 02:01:00,78.0,22.0,-100.00,South,172,12.0,17.0,13,0.00,,,-99.99,,2013-06-13 02:01:00,
2013-06-13 02:12:00,77.0,32.0,-100.00,South,172,9.0,13.0,20,0.00,,,-99.99,,2013-06-13 02:12:00,
2013-06-13 02:22:00,73.0,35.0,-100.00,South,172,11.0,17.0,25,0.00,,,-99.99,,2013-06-13 02:22:00,
2013-06-13 02:33:00,72.0,35.0,-100.00,South,172,11.0,18.0,25,0.00,,,-99.99,,2013-06-13 02:33:00,
2013-06-13 02:43:00,72.0,35.0,-100.00,South,172,11.0,16.0,26,0.00,,,-99.99,,2013-06-13 02:43:00,
2013-06-13 02:52:00,72.0,34.0,-100.00,South,172,11.0,20.0,25,0.00,,,-99.99,,2013-06-13 02:52:00,
2013-06-13 03:01:00,71.0,35.0,-100.00,South,172,13.0,24.0,26,0.00,,,-99.99,,2013-06-13 03:01:00,
2013-06-13 03:11:00,71.0,34.0,-100.00,South,172,11.0,17.0,25,0.00,,,-99.99,,2013-06-13 03:11:00,
2013-06-13 03:22:00,70.0,35.0,-100.00,South,172,13.0,18.0,27,0.00,,,-99.99,,2013-06-13 03:22:00,
2013-06-13 03:33:00,70.0,35.0,-100.00,South,172,12.0,16.0,28,0.00,,,-99.99,,2013-06-13 03:33:00,
2013-06-13 03:42:00,69.0,35.0,-100.00,South,172,9.0,16.0,29,0.00,,,-99.99,,2013-06-13 03:42:00,
2013-06-13 03:52:00,68.0,36.0,-100.00,South,172,8.0,12.0,30,0.00,,,-99.99,,2013-06-13 03:52:00,
2013-06-13 04:01:00,69.0,35.0,-100.00,South,172,9.0,12.0,29,0.00,,,-99.99,,2013-06-13 04:01:00,
2013-06-13 04:11:00,68.0,36.0,-100.00,South,172,7.0,12.0,30,0.00,,,-99.99,,2013-06-13 04:11:00,
2013-06-13 04:22:00,68.0,36.0,-100.00,South,172,7.0,11.0,30,0.00,,,-99.99,,2013-06-13 04:22:00,
2013-06-13 04:32:00,69.0,36.0,-100.00,South,172,11.0,23.0,30,0.00,,,-99.99,,2013-06-13 04:32:00,
2013-06-13 04:43:00,69.0,37.0,-100.00,South,172,14.0,23.0,31,0.00,,,-99.99,,2013-06-13 04:43:00,
2013-06-13 04:53:00,67.0,40.0,-100.00,South,172,12.0,17.0,37,0.00,,,-99.99,,2013-06-13 04:53:00,
2013-06-13 05:02:00,66.0,42.0,-100.00,SSE,167,15.0,21.0,41,0.00,,,-99.99,,2013-06-13 05:02:00,
2013-06-13 05:12:00,66.0,42.0,-100.00,SSE,158,16.0,23.0,43,0.00,,,-99.99,,2013-06-13 05:12:00,
2013-06-13 05:23:00,64.0,44.0,-100.00,SSE,155,16.0,22.0,46,0.00,,,-99.99,,2013-06-13 05:23:00,
2013-06-13 05:33:00,64.0,44.0,-100.00,SSE,158,16.0,24.0,48,0.00,,,-99.99,,2013-06-13 05:33:00,
2013-06-13 05:42:00,63.0,46.0,-100.00,SSE,158,22.0,29.0,52,0.00,,,-99.99,,2013-06-13 05:42:00,
2013-06-13 05:53:00,63.0,46.0,-100.00,SSE,157,19.0,26.0,55,0.00,,,-99.99,,2013-06-13 05:53:00,
2013-06-13 06:02:00,62.0,47.0,-100.00,SSE,161,17.0,23.0,57,0.00,,,-99.99,,2013-06-13 06:02:00,
2013-06-13 06:11:00,62.0,47.0,-100.00,SSE,161,14.0,21.0,59,0.00,,,-99.99,,2013-06-13 06:11:00,
2013-06-13 06:22:00,61.0,47.0,-100.00,SSE,167,12.0,18.0,60,0.00,,,-99.99,,2013-06-13 06:22:00,
2013-06-13 06:33:00,61.0,47.0,-100.00,SSE,168,9.0,13.0,60,0.00,,,-99.99,,2013-06-13 06:33:00,
2013-06-13 06:44:00,61.0,47.0,-100.00,SSE,164,9.0,14.0,59,0.00,,,-99.99,,2013-06-13 06:44:00,
2013-06-13 06:52:00,61.0,46.0,-100.00,South,172,9.0,14.0,59,0.00,,,-99.99,,2013-06-13 06:52:00,
2013-06-13 07:01:00,61.0,46.0,-100.00,South,172,8.0,13.0,59,0.00,,,-99.99,,2013-06-13 07:01:00,
2013-06-13 07:11:00,60.0,46.0,-100.00,SSE,162,4.0,7.0,60,0.00,,,-99.99,,2013-06-13 07:11:00,
2013-06-13 07:22:00,60.0,46.0,-100.00,SSE,152,2.0,4.0,60,0.00,,,-99.99,,2013-06-13 07:22:00,
2013-06-13 07:33:00,60.0,46.0,-100.00,SE,134,4.0,6.0,60,0.00,,,-99.99,,2013-06-13 07:33:00,
2013-06-13 07:42:00,60.0,46.0,-100.00,SE,140,4.0,6.0,60,0.00,,,-99.99,,2013-06-13 07:42:00,
2013-06-13 07:52:00,59.0,46.0,-100.00,SE,133,6.0,7.0,62,0.00,,,-99.99,,2013-06-13 07:52:00,
2013-06-13 08:01:00,58.0,47.0,-100.00,SE,126,6.0,8.0,67,0.00,,,-99.99,,2013-06-13 08:01:00,
2013-06-13 08:11:00,58.0,48.0,-100.00,SE,140,6.0,7.0,68,0.00,,,-99.99,,2013-06-13 08:11:00,
2013-06-13 08:22:00,58.0,49.0,-100.00,SE,134,7.0,10.0,72,0.00,,,-99.99,,2013-06-13 08:22:00,
2013-06-13 08:32:00,57.0,49.0,-100.00,SSE,152,7.0,10.0,73,0.00,,,-99.99,,2013-06-13 08:32:00,
2013-06-13 08:42:00,57.0,49.0,-100.00,SSE,161,6.0,9.0,73,0.00,,,-99.99,,2013-06-13 08:42:00,
2013-06-13 08:52:00,57.0,48.0,-100.00,SSE,157,4.0,7.0,73,0.00,,,-99.99,,2013-06-13 08:52:00,
2013-06-13 09:02:00,57.0,48.0,-100.00,ESE,116,3.0,7.0,72,0.00,,,-99.99,,2013-06-13 09:02:00,
2013-06-13 09:11:00,57.0,48.0,-100.00,SE,134,6.0,7.0,71,0.00,,,-99.99,,2013-06-13 09:11:00,
2013-06-13 09:22:00,57.0,47.0,-100.00,SSE,158,4.0,6.0,67,0.00,,,-99.99,,2013-06-13 09:22:00,
2013-06-13 09:32:00,57.0,46.0,-100.00,South,174,4.0,6.0,67,0.00,,,-99.99,,2013-06-13 09:32:00,
2013-06-13 09:42:00,57.0,47.0,-100.00,SE,136,6.0,9.0,68,0.00,,,-99.99,,2013-06-13 09:42:00,
2013-06-13 09:52:00,55.0,47.0,-100.00,SE,138,7.0,9.0,76,0.00,,,-99.99,,2013-06-13 09:52:00,
2013-06-13 10:01:00,54.0,47.0,-100.00,SSE,157,6.0,9.0,77,0.00,,,-99.99,,2013-06-13 10:01:00,
2013-06-13 10:11:00,54.0,47.0,-100.00,South,175,7.0,7.0,76,0.00,,,-99.99,,2013-06-13 10:11:00,
2013-06-13 10:22:00,54.0,46.0,-100.00,South,186,6.0,7.0,75,0.00,,,-99.99,,2013-06-13 10:22:00,
2013-06-13 10:33:00,54.0,46.0,-100.00,SSW,198,3.0,6.0,74,0.00,,,-99.99,,2013-06-13 10:33:00,
2013-06-13 10:53:00,54.0,47.0,-100.00,SSW,193,2.0,4.0,75,0.00,,,-99.99,,2013-06-13 10:53:00,
2013-06-13 11:02:00,54.0,47.0,-100.00,South,171,4.0,6.0,76,0.00,,,-99.99,,2013-06-13 11:02:00,
2013-06-13 11:11:00,54.0,46.0,-100.00,South,174,2.0,4.0,75,0.00,,,-99.99,,2013-06-13 11:11:00,
2013-06-13 11:23:00,53.0,46.0,-100.00,SSE,158,1.0,3.0,78,0.00,,,-99.99,,2013-06-13 11:23:00,
2013-06-13 11:32:00,53.0,46.0,-100.00,SE,131,1.0,2.0,79,0.00,,,-99.99,,2013-06-13 11:32:00,
2013-06-13 11:52:00,53.0,43.0,-100.00,ESE,116,2.0,5.0,69,0.00,,,-99.99,,2013-06-13 11:52:00,
2013-06-13 12:11:00,51.0,46.0,-100.00,ESE,121,3.0,7.0,83,0.00,,,-99.99,,2013-06-13 12:11:00,
2013-06-13 12:22:00,52.0,43.0,-100.00,SSE,155,5.0,6.0,71,0.00,,,-99.99,,2013-06-13 12:22:00,
2013-06-13 12:34:00,53.0,40.0,-100.00,South,175,4.0,6.0,60,0.00,,,-99.99,,2013-06-13 12:34:00,
2013-06-13 12:42:00,58.0,30.0,-100.00,SSW,203,7.0,12.0,34,0.00,,,-99.99,,2013-06-13 12:42:00,
2013-06-13 12:52:00,61.0,27.0,-100.00,SSW,205,10.0,12.0,27,0.00,,,-99.99,,2013-06-13 12:52:00,
2013-06-13 13:01:00,62.0,27.0,-100.00,SSW,208,10.0,11.0,26,0.00,,,-99.99,,2013-06-13 13:01:00,
2013-06-13 13:11:00,60.0,31.0,-100.00,SSW,210,7.0,9.0,34,0.00,,,-99.99,,2013-06-13 13:11:00,
2013-06-13 13:21:00,60.0,37.0,-100.00,SSW,195,6.0,8.0,42,0.00,,,-99.99,,2013-06-13 13:21:00,
2013-06-13 13:32:00,59.0,42.0,-100.00,South,172,6.0,11.0,53,0.00,,,-99.99,,2013-06-13 13:32:00,
2013-06-13 13:53:00,56.0,46.0,-100.00,SSE,157,7.0,11.0,70,0.00,,,-99.99,,2013-06-13 13:53:00,
2013-06-13 14:02:00,56.0,47.0,-100.00,SSE,150,7.0,10.0,70,0.00,,,-99.99,,2013-06-13 14:02:00,
2013-06-13 14:22:00,59.0,47.0,-100.00,SE,137,7.0,10.0,65,0.00,,,-99.99,,2013-06-13 14:22:00,
2013-06-13 14:53:00,63.0,44.0,-100.00,SE,124,7.0,12.0,49,0.00,,,-99.99,,2013-06-13 14:53:00,
2013-06-13 15:12:00,65.0,40.0,-100.00,ESE,109,7.0,9.0,39,0.00,,,-99.99,,2013-06-13 15:12:00,
2013-06-13 15:22:00,67.0,38.0,-100.00,ESE,109,9.0,11.0,35,0.00,,,-99.99,,2013-06-13 15:22:00,
2013-06-13 15:33:00,67.0,38.0,-100.00,ESE,109,7.0,9.0,33,0.00,,,-99.99,,2013-06-13 15:33:00,
2013-06-13 15:43:00,68.0,36.0,-100.00,ESE,109,7.0,9.0,31,0.00,,,-99.99,,2013-06-13 15:43:00,
2013-06-13 15:53:00,69.0,38.0,-100.00,ESE,109,6.0,9.0,32,0.00,,,-99.99,,2013-06-13 15:53:00,
2013-06-13 16:01:00,70.0,37.0,-100.00,ESE,109,4.0,7.0,30,0.00,,,-99.99,,2013-06-13 16:01:00,
2013-06-13 16:12:00,71.0,35.0,-100.00,ESE,109,4.0,7.0,26,0.00,,,-99.99,,2013-06-13 16:12:00,
2013-06-13 16:22:00,71.0,34.0,-100.00,ESE,109,3.0,6.0,26,0.00,,,-99.99,,2013-06-13 16:22:00,
2013-06-13 16:33:00,72.0,33.0,-100.00,ESE,109,2.0,5.0,24,0.00,,,-99.99,,2013-06-13 16:33:00,
2013-06-13 16:43:00,72.0,34.0,-100.00,ESE,109,2.0,6.0,25,0.00,,,-99.99,,2013-06-13 16:43:00,
2013-06-13 16:53:00,74.0,31.0,-100.00,ESE,109,2.0,4.0,21,0.00,,,-99.99,,2013-06-13 16:53:00,
2013-06-13 17:02:00,73.0,32.0,-100.00,ESE,109,2.0,7.0,22,0.00,,,-99.99,,2013-06-13 17:02:00,
2013-06-13 17:11:00,76.0,30.0,-100.00,ESE,109,3.0,6.0,19,0.00,,,-99.99,,2013-06-13 17:11:00,
2013-06-13 17:24:00,75.0,32.0,-100.00,ESE,109,3.0,11.0,20,0.00,,,-99.99,,2013-06-13 17:24:00,
2013-06-13 17:32:00,76.0,31.0,-100.00,ESE,109,3.0,11.0,19,0.00,,,-99.99,,2013-06-13 17:32:00,
2013-06-13 17:43:00,78.0,31.0,-100.00,ESE,109,2.0,6.0,18,0.00,,,-99.99,,2013-06-13 17:43:00,
2013-06-13 17:53:00,76.0,27.0,-100.00,ESE,109,8.0,18.0,16,0.00,,,-99.99,,2013-06-13 17:53:00,
2013-06-13 18:02:00,76.0,29.0,-100.00,ESE,109,10.0,18.0,17,0.00,,,-99.99,,2013-06-13 18:02:00,
2013-06-13 18:11:00,76.0,29.0,-100.00,ESE,109,12.0,22.0,18,0.00,,,-99.99,,2013-06-13 18:11:00,
2013-06-13 18:22:00,77.0,30.0,-100.00,ESE,109,7.0,16.0,17,0.00,,,-99.99,,2013-06-13 18:22:00,
2013-06-13 18:33:00,78.0,27.0,-100.00,ESE,109,6.0,14.0,16,0.00,,,-99.99,,2013-06-13 18:33:00,
2013-06-13 18:43:00,77.0,28.0,-100.00,ESE,109,7.0,14.0,17,0.00,,,-99.99,,2013-06-13 18:43:00,
2013-06-13 18:52:00,78.0,28.0,-100.00,ESE,109,10.0,27.0,16,0.00,,,-99.99,,2013-06-13 18:52:00,
2013-06-13 19:01:00,79.0,28.0,-100.00,ESE,109,12.0,21.0,16,0.00,,,-99.99,,2013-06-13 19:01:00,
2013-06-13 19:11:00,79.0,28.0,-100.00,ESE,109,14.0,22.0,16,0.00,,,-99.99,,2013-06-13 19:11:00,
2013-06-13 19:22:00,80.0,27.0,-100.00,ESE,109,12.0,21.0,15,0.00,,,-99.99,,2013-06-13 19:22:00,
2013-06-13 19:33:00,79.0,26.0,-100.00,ESE,109,21.0,32.0,14,0.00,,,-99.99,,2013-06-13 19:33:00,
2013-06-13 19:43:00,79.0,27.0,-100.00,ESE,109,21.0,32.0,15,0.00,,,-99.99,,2013-06-13 19:43:00,
2013-06-13 19:53:00,79.0,25.0,-100.00,ESE,109,24.0,32.0,14,0.00,,,-99.99,,2013-06-13 19:53:00,
2013-06-13 20:01:00,79.0,25.0,-100.00,ESE,109,24.0,37.0,14,0.00,,,-99.99,,2013-06-13 20:01:00,
2013-06-13 20:11:00,79.0,26.0,-100.00,ESE,109,26.0,37.0,14,0.00,,,-99.99,,2013-06-13 20:11:00,
2013-06-13 20:22:00,78.0,26.0,-100.00,ESE,109,25.0,37.0,14,0.00,,,-99.99,,2013-06-13 20:22:00,
2013-06-13 20:32:00,79.0,25.0,-100.00,ESE,109,22.0,30.0,14,0.00,,,-99.99,,2013-06-13 20:32:00,
2013-06-13 20:43:00,80.0,26.0,-100.00,ESE,109,24.0,34.0,14,0.00,,,-99.99,,2013-06-13 20:43:00,
2013-06-13 20:53:00,80.0,26.0,-100.00,ESE,109,27.0,39.0,13,0.00,,,-99.99,,2013-06-13 20:53:00,
2013-06-13 21:02:00,79.0,26.0,-100.00,ESE,109,23.0,32.0,14,0.00,,,-99.99,,2013-06-13 21:02:00,
2013-06-13 21:11:00,80.0,26.0,-100.00,ESE,109,23.0,32.0,14,0.00,,,-99.99,,2013-06-13 21:11:00,
2013-06-13 21:22:00,81.0,26.0,-100.00,ESE,109,22.0,32.0,13,0.00,,,-99.99,,2013-06-13 21:22:00,
2013-06-13 21:34:00,81.0,26.0,-100.00,ESE,109,28.0,39.0,13,0.00,,,-99.99,,2013-06-13 21:34:00,
2013-06-13 21:43:00,81.0,26.0,-100.00,ESE,109,27.0,36.0,13,0.00,,,-99.99,,2013-06-13 21:43:00,
2013-06-13 21:52:00,80.0,26.0,-100.00,ESE,109,24.0,34.0,14,0.00,,,-99.99,,2013-06-13 21:52:00,
2013-06-13 22:02:00,80.0,27.0,-100.00,ESE,109,22.0,29.0,14,0.00,,,-99.99,,2013-06-13 22:02:00,
2013-06-13 22:11:00,80.0,27.0,-100.00,ESE,109,22.0,34.0,14,0.00,,,-99.99,,2013-06-13 22:11:00,
2013-06-13 22:22:00,80.0,27.0,-100.00,ESE,109,21.0,32.0,14,0.00,,,-99.99,,2013-06-13 22:22:00,
2013-06-13 22:32:00,81.0,27.0,-100.00,ESE,109,22.0,30.0,14,0.00,,,-99.99,,2013-06-13 22:32:00,
2013-06-13 22:42:00,81.0,27.0,-100.00,ESE,109,22.0,30.0,14,0.00,,,-99.99,,2013-06-13 22:42:00,
2013-06-13 22:52:00,81.0,26.0,-100.00,ESE,109,22.0,34.0,14,0.00,,,-99.99,,2013-06-13 22:52:00,
2013-06-13 23:02:00,80.0,26.0,-100.00,ESE,109,22.0,32.0,14,0.00,,,-99.99,,2013-06-13 23:02:00,
2013-06-13 23:11:00,80.0,26.0,-100.00,ESE,109,22.0,30.0,14,0.00,,,-99.99,,2013-06-13 23:11:00,
2013-06-13 23:22:00,80.0,25.0,-100.00,ESE,109,23.0,32.0,13,0.00,,,-99.99,,2013-06-13 23:22:00,
2013-06-13 23:32:00,80.0,26.0,-100.00,ESE,109,24.0,32.0,14,0.00,,,-99.99,,2013-06-13 23:32:00,
2013-06-13 23:43:00,81.0,27.0,-100.00,ESE,109,24.0,32.0,13,0.00,,,-99.99,,2013-06-13 23:43:00,
2013-06-13 23:52:00,82.0,26.0,-100.00,ESE,109,24.0,34.0,13,0.00,,,-99.99,,2013-06-13 23:52:00,